This demonstration page uses our WeatherBlox Daily Observations layout. Learn more.

Left ArrowRight Arrow

Hourly Observations for September 15, 2019

Temp ( °F °C ) Dew Point ( °F °C ) Humidity (%) Winds ( mph kmh ) Pressure ( in mb ) Visibility ( mi km ) Precip ( " mm )
12:15 am 00:15 Clear 60 15.5 59 15 97 97 WNW 6 9 29.99 1016 10 16 0.00 0.00
12:35 am 00:35 Clear 60 15.4 59 14.9 97 97 W 3 6 29.98 1015 10 16 0.00 0.00
12:55 am 00:55 Clear 59 15.2 58 14.6 96 96 W 3 6 29.99 1016 10 16 0.00 0.00
1:15 am 01:15 Clear 59 14.8 58 14.4 97 97 WNW 3 6 30.00 1016 10 16 0.00 0.00
1:35 am 01:35 Clear 58 14.7 57 14 96 96 WNW 3 6 30.00 1016 10 16 0.00 0.00
1:55 am 01:55 Clear 59 14.9 57 14 94 94 NW 5 7 30.00 1016 10 16 0.00 0.00
2:15 am 02:15 Clear 56 13.5 55 13 97 97 NW 5 7 30.01 1016 10 16 0.00 0.00
2:35 am 02:35 Clear 56 13.6 55 13 96 96 SSW 5 7 30.01 1016 10 16 0.00 0.00
2:55 am 02:55 Clear 58 14.2 56 13.5 96 96 WSW 3 6 30.00 1016 10 16 0.00 0.00
3:15 am 03:15 Clear 55 13 55 12.5 97 97 W 5 7 30.01 1016 10 16 0.00 0.00
3:35 am 03:35 Clear 55 12.9 54 12.1 95 95 WSW 5 7 30.01 1016 10 16 0.00 0.00
3:55 am 03:55 Clear 56 13.5 54 12.1 91 91 W 3 6 30.02 1017 10 16 0.00 0.00
4:15 am 04:15 Clear 55 13 53 11.7 92 92 SW 9 15 30.02 1017 10 16 0.00 0.00
4:35 am 04:35 Clear 55 12.6 53 11.6 94 94 Calm 30.02 1017 10 16 0.00 0.00
4:55 am 04:55 Clear 53 11.8 52 11.3 97 97 Calm 30.02 1017 10 16 0.00 0.00
5:15 am 05:15 Clear 53 11.9 52 11.2 96 96 NNW 5 7 30.02 1017 10 16 0.00 0.00
5:35 am 05:35 Clear 54 12 53 11.5 97 97 NNW 5 7 30.02 1017 10 16 0.00 0.00
5:55 am 05:55 Clear 53 11.9 52 11.2 96 96 NNW 3 6 30.02 1017 10 16 0.00 0.00
6:15 am 06:15 Clear 53 11.8 52 11.2 96 96 NNW 3 6 30.02 1017 10 16 0.00 0.00
6:35 am 06:35 Clear 53 11.7 51 10.8 94 94 WNW 3 6 30.03 1017 10 16 0.00 0.00
6:55 am 06:55 Clear 52 11.2 51 10.8 97 97 Calm 30.03 1017 10 16 0.00 0.00
7:15 am 07:15 Clear 52 11 51 10.6 97 97 WNW 3 6 30.03 1017 10 16 0.00 0.00
7:35 am 07:35 Sunny 52 11 51 10.5 97 97 NW 5 7 30.03 1017 10 16 0.00 0.00
7:55 am 07:55 Sunny 53 11.7 52 11.1 96 96 NW 3 6 30.03 1017 10 16 0.00 0.00
8:15 am 08:15 Sunny 55 12.7 53 11.7 94 94 WNW 3 6 30.02 1016 10 16 0.00 0.00
8:35 am 08:35 Sunny 57 13.9 54 12.4 91 91 WSW 3 6 30.02 1016 10 16 0.00 0.00
8:55 am 08:55 Sunny 59 15 55 12.7 86 86 WSW 3 6 30.01 1016 10 16 0.00 0.00
9:15 am 09:15 Sunny 61 16 56 13.5 85 85 WNW 5 7 30.00 1016 10 16 0.00 0.00
9:35 am 09:35 Sunny 62 16.8 57 14 84 84 WNW 5 7 30.00 1016 10 16 0.00 0.00
9:55 am 09:55 Sunny 64 18 58 14.3 79 79 Calm 29.99 1016 10 16 0.00 0.00
10:15 am 10:15 Sunny 69 20.3 59 15 72 72 Calm 29.97 1015 10 16 0.00 0.00
10:35 am 10:35 Sunny 72 22.3 59 14.8 63 63 SSE 3 6 29.95 1014 10 16 0.00 0.00
10:55 am 10:55 Sunny 74 23.6 59 14.9 58 58 ESE 6 9 29.94 1014 10 16 0.00 0.00
11:15 am 11:15 Sunny 77 25 57 14.1 51 51 SE 7 11 29.93 1014 10 16 0.00 0.00
11:35 am 11:35 Sunny 79 26.2 60 15.3 51 51 SE 7 11 29.92 1013 10 16 0.00 0.00
11:55 am 11:55 Sunny 80 26.8 60 15.5 50 50 ESE 7 11 29.90 1013 10 16 0.00 0.00
12:15 pm 12:15 Sunny 82 27.9 62 16.7 51 51 SE 10 17 29.90 1012 10 16 0.00 0.00
12:35 pm 12:35 Sunny 83 28.1 63 17.4 52 52 SE 7 11 29.89 1012 10 16 0.00 0.00
12:55 pm 12:55 Sunny 83 28.3 64 18 54 54 SE 10 17 29.89 1012 10 16 0.00 0.00
1:15 pm 13:15 Sunny 84 29 65 18.4 53 53 SSE 10 17 29.89 1012 10 16 0.00 0.00
1:35 pm 13:35 Sunny 85 29.4 66 18.7 53 53 S 13 20 29.88 1012 10 16 0.00 0.00
1:55 pm 13:55 Sunny 86 29.9 67 19.3 53 53 SE 8 13 29.87 1012 10 16 0.00 0.00
2:15 pm 14:15 Sunny 87 30.7 66 19.1 50 50 SE 10 17 29.85 1011 10 16 0.00 0.00
2:35 pm 14:35 Sunny 89 31.4 64 18 45 45 SSE 13 20 29.85 1011 10 16 0.00 0.00
2:55 pm 14:55 Sunny 88 31.2 64 17.6 44 44 ESE 12 19 29.84 1010 10 16 0.00 0.00
3:15 pm 15:15 Sunny 89 31.6 64 17.8 44 44 ESE 13 20 29.82 1010 10 16 0.00 0.00
3:35 pm 15:35 Hazy 89 31.7 65 18.1 44 44 SE 12 19 29.82 1010 5 8 0.00 0.00
3:55 pm 15:55 Hazy 89 31.9 66 18.8 46 46 SSE 12 19 29.80 1009 5 8 0.00 0.00
4:15 pm 16:15 Hazy 90 32 66 18.7 45 45 SE 14 22 29.80 1009 4 6 0.00 0.00
4:35 pm 16:35 Sunny 90 32 67 19.2 47 47 SE 9 15 29.80 1009 7 11 0.00 0.00
4:55 pm 16:55 Hazy 89 31.8 67 19.4 48 48 SE 10 17 29.79 1009 5 8 0.00 0.00
5:15 pm 17:15 Hazy 89 31.4 67 19.7 50 50 SE 10 17 29.80 1009 5 8 0.00 0.00
5:35 pm 17:35 Sunny 88 31.1 68 19.9 51 51 ESE 12 19 29.79 1009 7 11 0.00 0.00
5:55 pm 17:55 Sunny 87 30.7 67 19.7 52 52 SE 12 19 29.79 1009 7 11 0.00 0.00
6:15 pm 18:15 Hazy 87 30.8 68 20 53 53 ESE 12 19 29.79 1009 5 8 0.00 0.00
6:35 pm 18:35 Hazy 86 30.1 69 20.4 56 56 SE 9 15 29.80 1009 5 8 0.00 0.00
6:55 pm 18:55 Hazy 85 29.3 70 20.9 61 61 SE 9 15 29.80 1009 5 8 0.00 0.00
7:15 pm 19:15 Hazy 82 28 70 21.2 67 67 SE 8 13 29.82 1010 5 8 0.00 0.00
7:35 pm 19:35 Sunny 80 26.8 70 21 71 71 SE 8 13 29.83 1010 7 11 0.00 0.00
7:55 pm 19:55 Clear 79 26 70 21 74 74 SE 8 13 29.83 1010 7 11 0.00 0.00
8:15 pm 20:15 Clear 77 25.2 69 20.7 76 76 SE 8 13 29.84 1010 7 11 0.00 0.00
8:35 pm 20:35 Clear 76 24.7 69 20.7 79 79 SE 7 11 29.85 1011 7 11 0.00 0.00
8:55 pm 20:55 Clear 74 23.3 69 20.5 84 84 SE 6 9 29.86 1011 10 16 0.00 0.00
9:15 pm 21:15 Clear 73 22.9 68 20.2 85 85 SE 6 9 29.87 1011 7 11 0.00 0.00
9:35 pm 21:35 Clear 73 22.6 66 18.9 80 80 SE 6 9 29.88 1012 7 11 0.00 0.00
9:55 pm 21:55 Clear 72 22 64 18 78 78 SE 6 9 29.89 1012 7 11 0.00 0.00
10:15 pm 22:15 Clear 71 21.4 63 17.3 78 78 SSE 8 13 29.89 1012 7 11 0.00 0.00
10:35 pm 22:35 Clear 70 21.3 62 16.7 75 75 SSE 7 11 29.89 1012 10 16 0.00 0.00
10:55 pm 22:55 Clear 70 21.2 62 16.7 76 76 SSE 8 13 29.89 1012 10 16 0.00 0.00
11:15 pm 23:15 Clear 70 21.1 62 16.5 75 75 SSE 8 13 29.90 1013 10 16 0.00 0.00
11:35 pm 23:35 Clear 69 20.6 61 16.2 76 76 SSE 7 11 29.90 1012 10 16 0.00 0.00
11:55 pm 23:55 Clear 69 20.7 61 16.1 75 75 S 7 11 29.90 1012 10 16 0.00 0.00

Powered by AerisWeather